Temp
-12 -13 -10 -10 -11 -11 -12 -11 -11 -11 -11 -12 -12 -12 -11 -11 -11 -12 -11 -10 -11 -11 -11 -11 -10 -10 -11 -11 -12 -12 -13 -13 -14 -14 -13 -13 -13 -13 -13 -13 -13 -13 -13 -13
-12 -10 -10 -12 -12 -12 -12 -12 -11 -11 -12 -12 -12 -11 -11 -11 -11 -12 -11 -10 -11 -11 -11 -10 -10 -10 -11 -11 -12 -13 -13 -14 -14 -14 -13 -12 -12 -13 -13 -13 -13 -13 -13 -14
-11 -8 -12 -13 -12 -12 -12 -11 -12 -13 -13 -13 -13 -11 -11 -11 -11 -11 -11 -10 -11 -11 -11 -10 -10 -10 -10 -11 -13 -12 -13 -13 -14 -13 -12 -12 -12 -13 -13 -13 -13 -13 -13 -14
-12 -12 -11 -13 -12 -12 -12 -13 -13 -13 -13 -12 -13 -11 -10 -10 -11 -11 -11 -11 -11 -11 -10 -10 -10 -10 -10 -11 -12 -12 -13 -13 -13 -12 -12 -12 -12 -13 -12 -12 -12 -13 -14 -14
-10 -11 -11 -11 -12 -12 -12 -13 -13 -13 -13 -12 -11 -11 -8 -10 -11 -10 -11 -11 -12 -10 -10 -9 -10 -10 -10 -11 -11 -12 -12 -12 -12 -12 -12 -12 -12 -12 -12 -12 -13 -13 -13 -14
-13 -12 -12 -11 -12 -13 -12 -12 -12 -13 -13 -11 -11 -10 -8 -10 -10 -11 -11 -11 -10 -10 -9 -10 -10 -10 -11 -11 -11 -11 -12 -12 -12 -12 -12 -12 -12 -12 -12 -13 -13 -14 -14 -14
-13 -12 -12 -12 -12 -13 -12 -12 -13 -12 -13 -10 -11 -11 -10 -10 -10 -10 -10 -10 -10 -10 -10 -10 -10 -11 -11 -11 -11 -11 -11 -12 -12 -12 -12 -12 -12 -12 -12 -13 -13 -13 -14 -14
-13 -13 -12 -11 -11 -11 -12 -12 -12 -12 -12 -12 -11 -10 -10 -11 -11 -10 -10 -11 -10 -10 -10 -10 -11 -11 -11 -11 -11 -11 -12 -12 -11 -12 -12 -12 -12 -12 -13 -13 -13 -13 -14 -14
-14 -13 -13 -13 -12 -12 -11 -11 -12 -12 -12 -12 -11 -11 -10 -11 -10 -11 -11 -11 -11 -11 -10 -11 -10 -11 -11 -11 -11 -12 -12 -11 -12 -12 -12 -12 -12 -13 -13 -13 -13 -13 -14 -14
-14 -13 -13 -13 -13 -12 -12 -12 -12 -12 -12 -11 -10 -10 -10 -11 -11 -11 -11 -11 -11 -10 -11 -11 -11 -11 -11 -11 -11 -12 -12 -12 -12 -12 -12 -13 -12 -13 -13 -13 -13 -13 -13 -14
-16 -13 -14 -14 -11 -12 -11 -11 -11 -12 -12 -11 -10 -10 -11 -11 -12 -11 -11 -11 -10 -11 -11 -11 -11 -11 -11 -11 -11 -12 -12 -12 -12 -12 -12 -12 -13 -12 -12 -13 -13 -13 -13 -13
-17 -15 -14 -12 -12 -12 -12 -12 -12 -12 -11 -11 -11 -10 -10 -11 -11 -12 -12 -11 -10 -11 -11 -11 -10 -11 -11 -11 -12 -12 -12 -12 -12 -12 -12 -12 -13 -12 -12 -12 -12 -13 -13 -13
-17 -16 -15 -14 -13 -12 -12 -12 -11 -12 -12 -11 -10 -11 -11 -12 -12 -11 -11 -11 -10 -11 -12 -11 -10 -11 -11 -11 -12 -12 -12 -12 -12 -12 -12 -12 -12 -12 -12 -12 -12 -13 -13 -13
-17 -15 -14 -13 -12 -11 -11 -12 -12 -12 -11 -10 -10 -12 -12 -12 -12 -11 -11 -11 -11 -12 -11 -10 -10 -11 -11 -11 -11 -11 -12 -11 -12 -12 -12 -12 -12 -12 -12 -12 -12 -13 -13 -13
-16 -16 -14 -13 -13 -12 -12 -12 -12 -11 -11 -10 -11 -12 -12 -12 -12 -11 -11 -11 -12 -12 -11 -10 -10 -11 -11 -11 -11 -11 -11 -11 -12 -12 -12 -12 -12 -12 -12 -12 -12 -13 -13 -13
-17 -16 -15 -14 -13 -13 -12 -12 -11 -12 -11 -11 -11 -12 -12 -12 -11 -11 -11 -11 -11 -11 -11 -10 -10 -10 -11 -11 -11 -11 -11 -11 -12 -12 -12 -12 -12 -12 -13 -13 -13 -13 -13 -13
-18 -17 -15 -15 -14 -13 -12 -12 -11 -11 -11 -11 -11 -12 -13 -12 -12 -11 -11 -12 -12 -11 -11 -10 -10 -10 -11 -11 -11 -11 -11 -11 -11 -12 -12 -12 -12 -12 -13 -13 -13 -13 -13 -13
-18 -17 -16 -15 -14 -14 -13 -12 -12 -12 -11 -10 -11 -12 -12 -12 -12 -11 -11 -12 -13 -11 -11 -10 -10 -10 -11 -11 -11 -11 -11 -11 -11 -11 -12 -12 -12 -12 -13 -13 -14 -14 -13 -13
-19 -17 -16 -16 -15 -14 -13 -13 -12 -12 -11 -10 -11 -12 -11 -12 -12 -11 -11 -12 -13 -12 -11 -11 -10 -11 -11 -11 -11 -11 -11 -11 -11 -11 -12 -12 -12 -12 -13 -13 -14 -13 -13 -14
-19 -17 -16 -16 -15 -15 -13 -13 -13 -12 -11 -10 -11 -12 -11 -11 -10 -11 -11 -12 -12 -12 -11 -11 -10 -11 -11 -11 -11 -11 -11 -11 -11 -12 -12 -12 -12 -12 -12 -13 -13 -13 -14 -14
-19 -17 -17 -16 -15 -14 -14 -14 -14 -13 -11 -10 -11 -12 -11 -11 -10 -10 -11 -12 -12 -11 -11 -11 -11 -11 -11 -11 -11 -11 -12 -12 -12 -12 -12 -12 -12 -12 -13 -13 -13 -13 -13 -14
-19 -18 -17 -16 -15 -15 -15 -14 -13 -12 -11 -11 -11 -11 -11 -11 -11 -10 -11 -12 -12 -11 -11 -11 -11 -11 -11 -11 -11 -12 -12 -12 -12 -12 -12 -12 -13 -13 -13 -13 -13 -13 -13 -13
-19 -18 -18 -16 -15 -15 -14 -13 -13 -12 -11 -11 -11 -11 -11 -11 -11 -11 -11 -11 -11 -11 -11 -10 -11 -11 -11 -11 -11 -12 -12 -12 -12 -12 -12 -12 -13 -13 -13 -13 -13 -13 -13 -13
-19 -18 -17 -17 -15 -15 -15 -14 -14 -13 -12 -12 -11 -12 -11 -12 -11 -11 -11 -11 -11 -11 -10 -10 -10 -11 -11 -11 -11 -12 -12 -12 -12 -12 -12 -12 -13 -13 -13 -13 -13 -13 -13 -13
-19 -18 -17 -17 -16 -16 -16 -15 -15 -13 -13 -12 -12 -12 -12 -12 -12 -12 -11 -11 -11 -11 -10 -10 -10 -11 -11 -11 -11 -11 -12 -12 -12 -12 -12 -12 -12 -13 -13 -13 -13 -13 -13 -13
-19 -19 -18 -17 -16 -16 -16 -15 -15 -14 -13 -13 -12 -12 -12 -12 -12 -12 -12 -11 -11 -11 -11 -10 -10 -10 -10 -11 -11 -11 -11 -12 -12 -12 -12 -12 -12 -12 -13 -13 -13 -12 -13 -13
Height
5729 5729 5734 5746 5750 5757 5762 5763 5765 5770 5776 5776 5777 5772 5774 5783 5784 5784 5786 5788 5788 5789 5789 5787 5787 5785 5783 5780 5779 5775 5772 5770 5766 5762 5757 5752 5748 5743 5738 5734 5729 5726 5720 5715
5714 5720 5737 5741 5744 5749 5752 5753 5755 5760 5763 5760 5761 5761 5764 5771 5775 5776 5779 5782 5783 5784 5782 5782 5781 5779 5777 5775 5773 5770 5767 5764 5760 5756 5751 5748 5743 5737 5733 5728 5724 5720 5715 5710
5704 5722 5729 5730 5735 5739 5742 5745 5751 5749 5752 5749 5748 5747 5753 5761 5765 5769 5773 5775 5778 5777 5777 5777 5776 5774 5772 5771 5767 5765 5762 5758 5755 5751 5747 5742 5738 5732 5728 5724 5719 5714 5709 5704
5694 5707 5710 5718 5720 5727 5732 5743 5741 5740 5739 5740 5738 5730 5747 5756 5757 5763 5768 5769 5772 5770 5772 5772 5771 5770 5767 5764 5761 5760 5756 5752 5750 5746 5742 5738 5732 5728 5724 5720 5714 5709 5703 5698
5686 5688 5696 5706 5713 5725 5729 5732 5732 5731 5729 5729 5733 5727 5744 5751 5755 5761 5761 5764 5764 5766 5765 5766 5767 5765 5763 5759 5756 5753 5750 5748 5745 5741 5737 5733 5728 5724 5720 5715 5710 5704 5698 5694
5668 5678 5690 5703 5709 5717 5718 5723 5722 5722 5723 5720 5729 5726 5737 5747 5749 5753 5755 5758 5760 5760 5761 5762 5761 5759 5756 5753 5751 5748 5746 5744 5740 5737 5733 5728 5724 5720 5715 5711 5706 5699 5695 5691
5650 5660 5675 5685 5692 5702 5704 5711 5712 5717 5716 5718 5725 5721 5738 5742 5745 5747 5750 5754 5755 5756 5758 5758 5756 5753 5751 5749 5746 5745 5742 5739 5736 5733 5728 5725 5721 5716 5712 5707 5701 5696 5693 5690
5633 5646 5661 5675 5683 5692 5700 5709 5710 5713 5714 5718 5719 5720 5736 5737 5740 5743 5747 5750 5750 5752 5754 5754 5751 5748 5746 5744 5743 5740 5738 5736 5733 5728 5725 5722 5717 5714 5710 5704 5699 5696 5694 5691
5619 5636 5653 5666 5675 5687 5693 5694 5709 5707 5707 5714 5712 5725 5732 5734 5737 5740 5745 5745 5748 5750 5750 5749 5746 5744 5743 5740 5739 5737 5735 5733 5729 5726 5723 5719 5716 5712 5707 5703 5700 5698 5695 5693
5609 5623 5641 5654 5666 5676 5683 5694 5694 5695 5699 5706 5712 5721 5728 5731 5734 5739 5741 5742 5744 5747 5746 5744 5742 5741 5739 5738 5736 5735 5733 5729 5726 5724 5721 5718 5715 5710 5706 5703 5701 5700 5697 5696
5598 5611 5627 5639 5653 5665 5671 5676 5682 5689 5694 5700 5711 5719 5725 5727 5730 5736 5737 5739 5742 5742 5742 5739 5738 5738 5736 5735 5733 5732 5730 5727 5725 5722 5720 5717 5714 5709 5705 5703 5701 5701 5699 5698
5585 5599 5617 5637 5648 5660 5668 5674 5682 5686 5694 5702 5710 5717 5719 5723 5728 5733 5735 5737 5739 5739 5738 5736 5735 5735 5734 5732 5731 5730 5727 5726 5724 5721 5718 5716 5713 5709 5707 5704 5703 5702 5701 5700
5576 5588 5607 5622 5635 5648 5654 5665 5672 5677 5686 5694 5704 5713 5714 5720 5726 5730 5733 5736 5737 5736 5735 5735 5733 5733 5732 5730 5729 5728 5726 5724 5722 5719 5717 5716 5713 5711 5709 5706 5705 5704 5703 5703
5567 5582 5600 5619 5634 5642 5652 5656 5661 5669 5679 5690 5698 5708 5711 5718 5721 5726 5729 5732 5734 5733 5733 5733 5731 5731 5730 5729 5728 5727 5725 5723 5721 5718 5718 5716 5715 5712 5711 5708 5707 5706 5706 5706
5566 5580 5596 5611 5621 5633 5641 5652 5658 5662 5677 5686 5696 5702 5708 5713 5717 5723 5728 5729 5731 5732 5732 5730 5730 5730 5729 5728 5728 5727 5725 5723 5721 5720 5719 5717 5716 5714 5712 5711 5709 5708 5708 5709
5561 5573 5589 5605 5616 5627 5635 5645 5650 5658 5671 5682 5691 5696 5703 5708 5715 5721 5725 5726 5729 5730 5729 5728 5729 5729 5729 5728 5727 5727 5725 5724 5722 5721 5720 5719 5717 5715 5714 5713 5711 5711 5711 5712
5557 5568 5585 5600 5609 5621 5630 5640 5647 5655 5668 5674 5684 5698 5699 5703 5710 5716 5720 5725 5728 5729 5728 5728 5729 5729 5729 5728 5727 5727 5726 5725 5724 5723 5722 5721 5719 5717 5715 5715 5713 5713 5712 5713
5553 5563 5579 5593 5607 5613 5628 5636 5642 5654 5663 5672 5677 5680 5689 5697 5704 5710 5716 5719 5725 5727 5727 5728 5728 5730 5729 5728 5726 5727 5726 5727 5726 5725 5724 5723 5722 5720 5717 5717 5717 5715 5715 5716
5550 5560 5576 5587 5600 5612 5624 5629 5637 5647 5659 5667 5674 5681 5688 5694 5702 5709 5712 5717 5722 5725 5726 5726 5728 5729 5729 5728 5727 5727 5727 5728 5728 5727 5726 5725 5725 5724 5721 5721 5720 5720 5719 5719
5549 5558 5574 5584 5598 5608 5612 5625 5634 5645 5654 5662 5671 5677 5685 5691 5699 5705 5710 5714 5718 5719 5724 5725 5727 5728 5728 5728 5728 5727 5728 5728 5729 5728 5727 5728 5728 5728 5726 5725 5725 5724 5724 5723
5548 5556 5571 5581 5592 5601 5609 5622 5632 5641 5651 5656 5667 5674 5681 5688 5696 5701 5705 5711 5715 5718 5720 5724 5725 5726 5727 5728 5728 5728 5728 5729 5729 5729 5729 5730 5730 5731 5730 5729 5729 5729 5729 5729
5549 5556 5566 5577 5587 5597 5605 5617 5625 5631 5644 5653 5663 5672 5678 5685 5691 5697 5701 5708 5713 5716 5719 5722 5723 5725 5726 5727 5728 5729 5728 5730 5731 5731 5731 5731 5732 5733 5734 5734 5733 5733 5734 5734
5551 5557 5564 5574 5583 5593 5601 5611 5619 5631 5642 5651 5660 5668 5675 5682 5688 5694 5698 5704 5710 5713 5716 5719 5721 5723 5725 5725 5727 5728 5729 5730 5730 5732 5732 5733 5734 5734 5735 5736 5737 5737 5738 5739
5550 5556 5563 5571 5579 5590 5598 5606 5615 5628 5639 5647 5657 5665 5672 5678 5684 5690 5695 5700 5706 5711 5713 5716 5718 5722 5724 5724 5725 5727 5728 5729 5730 5731 5733 5734 5735 5736 5737 5738 5739 5741 5742 5743
5550 5555 5563 5570 5577 5584 5594 5602 5612 5623 5634 5644 5652 5662 5668 5675 5680 5686 5692 5696 5702 5707 5711 5713 5716 5719 5722 5723 5725 5726 5727 5728 5730 5731 5733 5734 5736 5737 5738 5740 5742 5743 5745 5746
5549 5554 5561 5567 5574 5580 5590 5598 5607 5617 5628 5638 5647 5656 5664 5670 5676 5682 5687 5693 5697 5703 5708 5711 5713 5716 5718 5721 5723 5725 5725 5727 5728 5730 5732 5734 5735 5737 5739 5741 5742 5745 5747 5749
Wind_Speed
60 65 58 54 56 58 59 60 58 58 54 54 51 53 51 36 35 33 31 29 28 24 27 30 30 26 26 27 29 21 25 25 31 40 37 33 31 30 29 32 32 32 31 33
60 57 47 51 52 51 52 53 53 49 45 47 48 48 46 37 35 33 28 28 26 27 28 28 25 25 24 27 25 23 25 29 33 37 33 31 29 29 31 32 31 33 33 34
61 45 44 48 44 44 41 39 35 37 33 41 45 50 47 38 36 33 26 28 23 25 27 28 24 25 24 28 22 24 24 28 32 32 30 27 28 30 31 29 31 33 33 33
63 55 51 46 47 44 42 25 23 25 29 39 42 52 41 36 37 32 23 26 22 27 24 23 26 24 25 22 21 22 23 27 28 28 26 25 28 29 26 28 32 31 32 29
64 64 58 49 44 34 30 27 25 27 34 40 39 45 33 29 24 23 24 25 26 22 24 24 21 25 24 18 18 18 21 23 24 25 24 25 28 27 27 31 27 29 27 26
64 62 56 48 45 37 38 35 34 34 37 41 34 39 30 14 22 19 20 26 20 21 21 18 18 22 14 16 16 16 19 20 22 22 23 25 27 27 27 28 29 26 24 15
67 67 61 57 55 50 47 43 44 39 38 34 27 37 13 12 6 17 22 21 20 19 16 15 17 15 15 16 16 17 17 20 20 22 23 26 26 24 23 26 24 20 13 7
68 67 65 59 54 51 47 40 42 35 31 29 25 32 22 13 10 15 17 18 21 18 13 13 14 10 12 12 13 15 18 18 20 19 22 24 20 19 21 22 17 15 6 5
69 65 60 55 50 45 42 41 31 33 32 21 28 18 13 14 18 20 12 18 16 16 12 12 7 9 10 8 12 14 14 17 16 17 22 18 16 18 19 16 14 6 8 9
70 69 62 55 50 46 43 37 39 38 34 27 25 21 13 18 20 18 18 18 16 13 9 8 8 8 9 9 13 12 13 15 13 16 19 15 16 17 16 14 10 3 9 8
70 70 65 60 57 51 50 47 45 39 36 30 22 19 11 17 20 14 19 21 16 8 8 6 8 9 9 8 11 9 12 13 11 16 17 15 16 17 15 12 3 5 8 9
70 70 63 57 55 49 45 44 41 38 33 28 18 13 13 20 22 18 19 22 15 7 6 9 6 8 7 9 6 8 11 10 12 16 14 13 15 12 11 8 4 7 9 9
70 69 65 60 56 54 53 44 46 46 39 32 22 16 15 26 23 21 17 19 13 7 6 4 2 6 5 4 5 7 10 10 12 12 11 11 13 10 11 7 7 8 9 10
71 70 63 58 54 54 50 48 47 45 41 31 26 22 23 27 26 23 19 17 11 5 6 3 1 2 4 3 5 8 10 10 10 11 11 10 10 11 11 11 9 9 10 11
66 65 62 56 57 54 52 44 46 45 37 29 23 30 30 28 26 20 20 14 9 7 2 1 1 1 3 3 5 9 10 9 8 10 9 9 8 11 9 7 9 10 10 10
65 65 61 57 54 53 51 46 45 43 32 27 28 35 36 30 24 21 20 12 10 7 1 2 1 3 3 3 4 8 10 9 8 9 9 8 5 8 8 8 7 8 9 8
62 65 60 58 56 51 50 45 44 43 29 30 38 33 35 30 26 22 19 10 10 7 3 2 1 4 4 4 5 6 10 8 8 8 9 10 9 7 8 8 10 12 10 12
52 66 63 58 56 54 47 43 42 37 32 31 49 47 41 33 27 25 20 14 11 9 5 5 2 5 5 4 7 6 9 7 7 9 11 12 12 11 12 10 11 14 14 13
46 60 64 59 57 54 48 43 41 39 35 41 48 47 42 36 28 24 23 18 13 11 7 8 6 7 7 7 8 7 7 6 6 7 10 13 12 16 18 16 17 16 16 13
41 50 60 62 55 54 56 48 40 38 37 40 47 44 43 39 32 28 25 21 17 13 8 10 9 9 8 7 8 8 6 6 4 6 9 10 12 13 16 16 16 17 16 17
35 43 48 58 60 58 54 49 41 40 43 43 44 43 40 39 35 33 28 24 20 15 12 9 11 9 9 6 6 7 5 5 5 5 7 9 10 11 13 13 15 17 18 21
23 30 39 50 58 57 53 49 50 47 42 43 39 40 41 38 36 35 30 20 22 18 13 9 12 9 9 9 6 4 5 2 4 5 7 8 7 9 10 11 11 14 17 20
25 26 28 43 57 54 55 58 53 44 42 41 39 39 38 36 36 31 29 23 24 23 17 13 10 10 9 10 9 5 3 2 2 4 5 6 4 4 6 7 7 9 14 16
23 29 31 34 47 54 57 50 50 49 41 41 40 39 36 35 34 32 31 27 27 26 21 17 13 10 10 10 10 10 6 4 3 3 4 4 5 4 6 8 10 11 12 14
24 31 29 28 38 49 52 50 44 46 46 42 42 40 38 34 36 35 32 28 29 29 26 20 15 12 12 9 9 12 11 8 5 4 5 4 5 7 7 10 12 13 15 16
25 26 30 32 37 45 51 53 47 44 45 45 42 40 39 37 37 37 36 30 30 29 29 24 19 17 14 13 11 14 13 10 10 7 5 7 7 8 9 11 13 14 15 17
Wind_Direction
241 235 245 247 249 252 255 260 264 266 273 272 269 266 268 264 251 264 265 270 267 278 282 271 262 276 277 280 288 299 307 309 312 312 308 305 309 315 318 319 320 314 314 314
240 243 245 244 247 249 252 256 259 264 265 267 265 262 263 256 248 252 256 256 259 278 270 261 265 273 277 284 286 299 301 308 305 303 303 305 313 317 318 318 313 311 311 311
238 246 250 243 246 248 252 257 266 269 260 259 262 257 255 248 246 243 251 251 264 278 264 261 270 277 284 282 288 291 294 297 299 300 303 310 315 318 318 314 313 313 312 315
233 236 237 242 236 237 239 261 253 250 252 255 256 260 252 249 243 241 244 254 271 259 259 266 271 276 282 288 290 283 287 294 297 300 304 314 316 320 318 315 314 315 318 318
231 231 232 232 234 235 243 250 253 250 254 255 253 261 256 250 238 240 245 245 251 255 254 260 274 276 287 300 290 287 289 293 298 301 311 313 317 319 314 315 314 319 322 319
224 230 232 233 234 231 237 237 245 247 255 256 250 249 244 223 237 237 239 241 249 249 253 269 272 277 288 302 294 293 290 296 301 311 311 314 321 317 311 317 317 321 326 326
219 224 223 221 228 226 225 227 236 246 258 259 249 241 143 190 207 220 240 245 240 248 268 268 274 282 283 285 286 291 294 303 311 314 316 318 320 317 321 325 329 332 339 350
212 218 220 221 228 226 228 232 242 249 265 270 252 241 188 233 251 239 237 244 241 251 253 267 283 298 284 289 300 294 300 309 318 324 327 327 324 328 332 336 345 344 9 32
207 213 217 217 223 225 224 227 233 240 252 248 238 219 180 212 239 244 241 238 248 255 242 276 295 308 297 312 319 303 306 317 329 331 332 335 337 334 339 349 346 5 55 66
203 209 212 214 214 217 218 223 228 233 240 232 224 192 196 211 228 237 240 231 230 236 256 266 317 298 304 312 315 299 314 333 338 334 340 341 342 345 346 345 344 68 63 76
200 205 207 208 209 214 217 216 219 225 231 231 214 188 198 190 212 213 229 244 234 217 256 291 294 290 298 310 310 310 334 345 342 340 341 345 348 349 353 345 354 89 73 79
198 204 205 208 209 212 218 222 229 236 239 243 233 205 198 196 211 205 224 236 232 209 279 311 290 289 297 329 320 334 347 344 339 342 341 351 357 1 5 6 66 90 71 82
200 203 201 201 204 206 212 216 222 225 229 228 219 164 184 182 200 212 233 235 227 221 288 299 352 309 321 1 343 351 356 348 346 350 359 9 3 19 19 59 67 78 75 84
201 201 198 202 205 208 213 213 216 223 226 225 203 175 160 184 201 211 221 214 231 231 281 251 14 312 352 37 8 5 6 356 358 13 31 20 38 42 51 71 72 88 86 86
201 201 198 197 202 205 213 214 218 222 220 217 199 176 178 188 200 202 212 206 236 247 259 153 87 163 29 60 24 15 16 4 12 31 38 32 64 48 55 53 68 89 95 94
201 202 197 197 202 204 211 214 213 215 219 198 177 172 177 192 198 195 206 203 225 233 84 97 103 142 59 68 52 20 23 8 14 34 81 63 50 27 44 45 54 74 96 111
206 203 197 198 203 204 210 213 214 216 202 192 171 162 181 192 194 193 193 199 238 224 127 112 143 152 76 68 77 38 29 26 42 67 77 67 51 27 47 57 69 72 88 128
207 206 199 198 202 207 205 212 214 207 194 178 166 178 182 188 185 187 178 176 235 223 150 138 131 156 75 69 85 63 38 50 70 74 80 65 48 53 85 76 67 79 90 106
206 209 200 201 200 205 205 207 209 203 190 172 170 186 188 193 192 185 178 186 213 235 168 156 149 168 111 71 80 75 57 57 87 75 69 69 70 72 79 83 95 90 92 91
212 212 204 202 200 203 209 205 207 199 191 183 178 188 191 198 194 187 182 187 206 202 178 163 161 175 156 103 73 76 75 62 72 71 69 74 81 81 81 82 87 85 87 89
213 216 209 206 203 204 208 208 205 203 189 188 183 188 192 199 194 188 181 189 202 198 188 163 172 174 181 155 92 73 72 86 80 76 78 87 90 85 84 80 85 93 92 91
189 214 211 208 208 208 209 206 207 207 195 191 188 187 192 197 190 187 184 189 200 204 176 161 177 181 180 186 158 87 72 88 104 93 85 83 89 94 85 82 82 95 105 105
159 180 201 209 208 205 209 210 212 207 199 197 188 187 191 198 191 188 184 185 196 204 188 178 173 183 190 186 184 183 108 110 138 123 107 103 89 84 89 86 94 110 110 111
159 166 182 206 209 208 207 212 211 212 204 200 195 186 192 197 196 190 192 191 197 199 195 188 177 191 206 196 197 182 165 149 154 174 160 137 138 127 108 111 115 116 120 117
182 178 185 192 208 210 208 210 213 207 207 207 202 195 196 199 201 200 202 198 197 201 198 193 190 198 210 218 205 195 182 177 166 160 187 181 164 161 148 135 133 131 129 126
199 183 203 215 217 211 210 210 207 210 208 210 209 204 201 207 208 209 208 203 203 204 204 198 198 203 211 212 222 207 194 185 185 188 180 192 193 188 177 166 159 153 149 146